sat.trackr.live / text

‹ back to catalog

O3B FM16

NORAD 43232 · 2018-024B

PAYLOAD ACTIVE UNKNOWN

§ Identity

Operator
Country
O3B
Launch date
2018-03-09
Launch site
FRGUI
Launch vehicle
Mass (kg)
RCS (m²)

Purposes: comms

External: N2YO · Heavens-Above · Gunter

§ Orbital elements

Epoch: 2026-09-20T02:13:59.901024Z

Period
287.93 min
Inclination
0.0590°
Eccentricity
0.0002541
Mean motion
5.00116113 rev/d
Perigee alt
8,062.2 km
Apogee alt
8,069.5 km
Semi-major
14,444.0 km
B*
0.0000e+0
RAAN
359.2973°
Arg perigee
181.2437°
Mean anomaly
179.4610°
Rev number
15,569

§ Raw data

O3B FM161 43232U 18024B   26263.09305441 -.00000027  00000+0  00000+0 0  99922 43232   0.0590 359.2973 0002541 181.2437 179.4610  5.00116113155698

JSON: /api/v1/satellites/43232 · /tle

For live sub-satellite position, see the globe view (requires WebGL).

§ Visibility from observer

Set your observer location to see the next 7 days of passes ≥ 10°. The values pass through the URL so the page stays shareable.

No JS? Fill the form by hand. The geolocation button needs JavaScript.